Location: Koszewko
(53.2876°N, 14.9061°E)
Time: 23:36:17
(UTC+00:00)

Cosmos 1844 Rocket - Pass Details

Date: 03 March 2021
Orbit: 826 x 843 km, 71.0° (Epoch: 12 April)

Event Time Altitude Azimuth Distance (km) Brightness Sun altitude
Rises 18:21:01 0° 326° (NW) 3,378 6.5 -15.5°
Reaches altitude 10° 18:23:29 10° 323° (NW) 2,440 5.8 -15.8°
Maximum altitude 18:28:57 59° 246° (WSW) 955 3.2 -16.6°
Drops below altitude 10° 18:34:23 10° 168° (SSE) 2,425 4.8 -17.4°
Enters shadow 18:36:02 - 165° (SSE) 3,048 5.3 -17.7°
